Total_Precipitation_Accumulation
0.00 0.00 0.00 0.00 0.00 0.00 0.00 0.00 0.00 0.01 0.05 0.10 0.13 0.11 0.18 0.20 0.10 0.03 0.00 0.00 0.00 0.00 0.00 0.00 0.00 0.00 0.00 0.00 0.00 0.00 0.00 0.00 0.00 0.00 0.00 0.00 0.00 0.00 0.00 0.00 0.00 0.00 0.00 0.00 0.00
0.00 0.00 0.00 0.00 0.00 0.00 0.00 0.00 0.00 0.00 0.00 0.01 0.03 0.06 0.10 0.09 0.05 0.07 0.00 0.00 0.00 0.00 0.00 0.00 0.00 0.01 0.00 0.00 0.00 0.00 0.00 0.00 0.00 0.00 0.00 0.00 0.00 0.00 0.00 0.00 0.00 0.00 0.00 0.00 0.00
0.00 0.00 0.00 0.00 0.00 0.00 0.00 0.01 0.01 0.00 0.00 0.01 0.03 0.04 0.10 0.05 0.06 0.02 0.00 0.00 0.00 0.02 0.00 0.00 0.01 0.05 0.04 0.00 0.00 0.00 0.00 0.00 0.00 0.00 0.00 0.00 0.00 0.00 0.00 0.00 0.00 0.00 0.00 0.00 0.00
0.00 0.00 0.00 0.00 0.00 0.00 0.00 0.00 0.01 0.02 0.01 0.00 0.02 0.06 0.10 0.06 0.02 0.01 0.00 0.00 0.00 0.04 0.01 0.01 0.02 0.04 0.04 0.01 0.00 0.00 0.00 0.00 0.00 0.00 0.00 0.00 0.00 0.00 0.00 0.00 0.00 0.00 0.00 0.00 0.00
0.03 0.01 0.00 0.00 0.01 0.00 0.00 0.00 0.00 0.00 0.01 0.01 0.04 0.09 0.08 0.06 0.02 0.00 0.00 0.00 0.00 0.01 0.01 0.03 0.04 0.02 0.02 0.00 0.01 0.00 0.00 0.00 0.00 0.00 0.00 0.00 0.00 0.00 0.00 0.00 0.00 0.00 0.00 0.00 0.00
0.04 0.02 0.00 0.00 0.00 0.01 0.00 0.00 0.00 0.00 0.03 0.07 0.10 0.11 0.03 0.03 0.00 0.00 0.00 0.00 0.00 0.00 0.01 0.04 0.04 0.01 0.01 0.00 0.02 0.00 0.00 0.00 0.00 0.00 0.00 0.00 0.00 0.00 0.00 0.00 0.00 0.00 0.00 0.00 0.00
0.04 0.04 0.02 0.01 0.00 0.00 0.00 0.00 0.00 0.00 0.04 0.11 0.19 0.11 0.04 0.00 0.00 0.00 0.00 0.00 0.00 0.00 0.00 0.01 0.04 0.14 0.08 0.06 0.00 0.01 0.01 0.00 0.00 0.00 0.00 0.00 0.00 0.00 0.00 0.00 0.00 0.00 0.00 0.00 0.00
0.03 0.06 0.07 0.03 0.02 0.01 0.01 0.02 0.03 0.02 0.06 0.12 0.13 0.13 0.05 0.00 0.00 0.00 0.00 0.00 0.00 0.00 0.00 0.01 0.13 0.13 0.10 0.07 0.04 0.04 0.06 0.02 0.00 0.00 0.00 0.00 0.00 0.00 0.00 0.00 0.00 0.00 0.00 0.00 0.00
0.05 0.06 0.06 0.05 0.04 0.04 0.06 0.07 0.08 0.12 0.17 0.11 0.05 0.10 0.03 0.00 0.00 0.00 0.00 0.00 0.00 0.00 0.00 0.03 0.17 0.19 0.11 0.15 0.16 0.11 0.04 0.01 0.00 0.00 0.00 0.00 0.00 0.00 0.00 0.00 0.00 0.00 0.00 0.00 0.00
0.07 0.07 0.07 0.06 0.05 0.05 0.14 0.21 0.20 0.19 0.15 0.08 0.04 0.06 0.00 0.00 0.00 0.00 0.00 0.00 0.04 0.08 0.06 0.08 0.20 0.23 0.16 0.20 0.14 0.04 0.02 0.01 0.00 0.00 0.00 0.00 0.00 0.00 0.00 0.00 0.00 0.00 0.00 0.00 0.00
0.13 0.13 0.14 0.11 0.08 0.09 0.23 0.57 0.25 0.14 0.11 0.01 0.01 0.00 0.00 0.00 0.00 0.00 0.00 0.00 0.03 0.14 0.09 0.10 0.21 0.19 0.10 0.04 0.03 0.02 0.05 0.02 0.00 0.00 0.01 0.00 0.00 0.00 0.00 0.00 0.00 0.00 0.00 0.00 0.00
0.13 0.11 0.14 0.16 0.15 0.21 0.39 0.34 0.08 0.05 0.13 0.04 0.01 0.00 0.00 0.02 0.03 0.01 0.00 0.01 0.05 0.13 0.10 0.23 0.19 0.04 0.09 0.06 0.05 0.06 0.06 0.03 0.01 0.02 0.04 0.00 0.00 0.00 0.00 0.00 0.00 0.00 0.00 0.00 0.00
0.20 0.19 0.16 0.18 0.20 0.28 0.32 0.20 0.14 0.15 0.49 0.24 0.04 0.03 0.01 0.02 0.03 0.07 0.00 0.03 0.05 0.12 0.18 0.22 0.18 0.05 0.14 0.13 0.09 0.07 0.07 0.04 0.03 0.05 0.04 0.02 0.00 0.00 0.00 0.00 0.00 0.00 0.00 0.00 0.00
0.26 0.28 0.21 0.25 0.27 0.22 0.36 0.35 0.36 0.49 1.15 0.24 0.04 0.08 0.09 0.17 0.12 0.02 0.00 0.05 0.09 0.12 0.16 0.22 0.19 0.18 0.17 0.25 0.09 0.06 0.03 0.04 0.07 0.16 0.05 0.07 0.03 0.00 0.00 0.00 0.00 0.00 0.00 0.00 0.00
0.34 0.33 0.24 0.23 0.21 0.23 0.23 0.44 0.52 0.86 0.89 0.04 0.02 0.02 0.03 0.14 0.12 0.03 0.01 0.15 0.17 0.14 0.38 0.44 0.24 0.31 0.19 0.28 0.09 0.09 0.02 0.04 0.08 0.22 0.32 0.07 0.06 0.01 0.00 0.00 0.00 0.00 0.00 0.00 0.00
0.41 0.44 0.40 0.22 0.19 0.27 0.35 0.50 0.62 0.82 0.37 0.06 0.07 0.05 0.08 0.08 0.15 0.17 0.05 0.14 0.33 0.48 0.45 0.27 0.18 0.30 0.19 0.17 0.16 0.10 0.13 0.13 0.20 0.29 0.45 0.34 0.09 0.02 0.00 0.00 0.00 0.00 0.00 0.00 0.00
0.56 0.62 0.66 0.13 0.20 0.28 0.47 0.53 0.67 0.39 0.16 0.27 0.17 0.18 0.10 0.05 0.13 0.18 0.15 0.20 0.86 0.76 0.76 0.85 0.58 0.48 0.23 0.35 0.50 0.38 0.46 0.66 0.59 0.61 0.32 0.07 0.24 0.11 0.00 0.00 0.00 0.00 0.00 0.00 0.00
0.59 0.87 0.78 0.16 0.23 0.30 0.52 0.52 0.40 0.13 0.21 0.24 0.16 0.21 0.29 0.10 0.17 0.14 0.31 0.16 0.47 0.39 0.55 0.74 0.65 0.51 0.30 0.46 0.77 0.59 0.48 0.63 0.34 0.29 0.13 0.05 0.07 0.03 0.00 0.00 0.00 0.00 0.00 0.00 0.00
0.82 1.14 1.08 0.26 0.35 0.41 0.68 0.60 0.20 0.17 0.23 0.21 0.23 0.24 0.27 0.12 0.17 0.16 0.18 0.13 0.17 0.16 0.41 0.44 0.52 0.31 0.19 0.22 0.51 0.64 0.63 0.42 0.35 0.10 0.18 0.09 0.02 0.00 0.00 0.00 0.00 0.00 0.00 0.00 0.00
1.41 1.52 1.18 0.18 0.42 0.64 0.93 0.54 0.31 0.39 0.32 0.17 0.12 0.05 0.04 0.08 0.19 0.11 0.08 0.05 0.09 0.03 0.19 0.33 0.56 0.53 0.49 0.40 0.57 0.51 0.32 0.44 0.76 0.30 0.12 0.10 0.06 0.00 0.00 0.00 0.00 0.00 0.00 0.00 0.00
1.39 1.56 0.97 0.45 0.82 1.07 0.82 0.47 0.30 0.26 0.22 0.18 0.06 0.05 0.02 0.02 0.19 0.05 0.04 0.03 0.05 0.02 0.13 0.44 0.60 0.62 0.87 0.75 0.53 0.53 0.50 0.38 0.44 0.23 0.11 0.05 0.08 0.01 0.00 0.00 0.02 0.01 0.01 0.00 0.00
1.22 1.27 0.72 0.87 1.20 0.76 0.45 0.60 0.37 0.18 0.17 0.17 0.07 0.02 0.01 0.01 0.12 0.05 0.03 0.02 0.01 0.03 0.16 0.38 0.52 0.68 0.53 0.20 0.16 0.23 0.25 0.11 0.45 0.30 0.11 0.06 0.01 0.01 0.00 0.00 0.02 0.03 0.03 0.02 0.01
1.06 1.04 1.31 0.57 0.69 0.39 0.37 0.62 0.39 0.15 0.17 0.20 0.05 0.01 0.00 0.00 0.02 0.01 0.02 0.00 0.00 0.01 0.15 0.29 0.69 0.70 0.65 0.43 0.40 0.44 0.27 0.12 0.25 0.56 0.22 0.14 0.01 0.00 0.00 0.01 0.00 0.00 0.01 0.01 0.00
1.01 0.93 1.55 1.22 0.26 0.27 0.54 0.66 0.53 0.20 0.17 0.22 0.08 0.03 0.01 0.00 0.00 0.00 0.04 0.00 0.00 0.01 0.18 0.65 0.55 0.67 0.61 0.54 0.35 0.16 0.16 0.20 0.30 0.55 0.23 0.10 0.02 0.01 0.00 0.01 0.01 0.00 0.00 0.00 0.00
0.64 0.33 0.32 0.39 0.15 0.06 0.52 0.73 0.78 0.64 0.43 0.27 0.11 0.02 0.01 0.00 0.00 0.00 0.01 0.00 0.00 0.01 0.21 0.68 0.83 1.10 0.60 0.21 0.37 0.12 0.10 0.14 0.30 0.34 0.25 0.08 0.07 0.01 0.00 0.00 0.01 0.00 0.00 0.00 0.00
0.36 0.10 0.05 0.03 0.01 0.01 0.31 0.76 0.86 0.76 0.59 0.31 0.13 0.01 0.01 0.00 0.00 0.00 0.00 0.00 0.00 0.00 0.08 0.37 0.66 0.82 0.42 0.05 0.08 0.07 0.07 0.09 0.13 0.28 0.35 0.16 0.21 0.05 0.01 0.00 0.00 0.00 0.00 0.00 0.00
0.22 0.03 0.03 0.05 0.04 0.03 0.08 0.39 0.62 0.63 0.48 0.27 0.17 0.11 0.02 0.01 0.00 0.00 0.00 0.00 0.00 0.00 0.06 0.20 0.32 0.50 0.41 0.19 0.14 0.21 0.12 0.09 0.12 0.16 0.27 0.25 0.17 0.03 0.00 0.00 0.00 0.00 0.00 0.00 0.00